Regional Weather Roundup
Issued by NWS

Home | Current Version | Previous Version | Graphics & Text | Print | Product List | Glossary On
Versions: 1 2 3 4 5 6 7 8 9 10 11 12 13 14 15 16 17 18 19 20 21 22 23 24 25 26 27 28 29 30 31 32 33 34 35 36 37 38 39 40 41 42 43 44 45 46 47 48 49 50
000
ASUS45 KCYS 301310
RWRWY

WYOMING REGIONAL WEATHER ROUNDUP
NATIONAL WEATHER SERVICE CHEYENNE WY
700 AM MDT TUE SEP 30 2014

NOTE:  "FAIR" INDICATES FEW OR NO CLOUDS BELOW 12,000 FEET
WITH NO SIGNIFICANT WEATHER AND/OR OBSTRUCTIONS TO VISIBILITY.

WYZ001-301400-
YELLOWSTONE NATIONAL PARK

CITY           SKY/WX    TMP DP  RH WIND       PRES   REMARKS
LK YELLOWSTONE   N/A     38  35  89 W6        29.94F WCI  33
W YELLOWSTONE  NOT AVBL

$$
WYZ002>013-054>058-071-098>099-301400-
NORTHERN WYOMING

CITY           SKY/WX    TMP DP  RH WIND       PRES   REMARKS
JACKSON        CLOUDY    43  41  93 S5        29.92F
CODY           MOCLDY    52  36  54 W10       29.76S
GREYBULL       CLOUDY    44  44 100 CALM      29.72S
WORLAND        PTCLDY    42  41  96 S7        29.74F
SHERIDAN       MOCLDY    50  42  74 W9        29.69S
BUFFALO        CLOUDY    52  37  56 NW13      29.71S
GILLETTE       LGT RAIN  50  48  93 NW6       29.66S FOG
HULETT         CLOUDY    50  48  93 N7        29.64
NEWCASTLE      PTSUNNY   50  46  87 NW20G26   29.58

$$
WYZ014>020-022>026-101>103-301400-
CENTRAL WYOMING

CITY           SKY/WX    TMP DP  RH WIND       PRES   REMARKS
BIG PINEY      PTCLDY    34  31  88 SW3       29.95S
PINEDALE       MOSUNNY   36  36 100 MISG      29.95S
DUBOIS         CLOUDY    41  32  70 NW12G17   29.88F
LANDER         CLEAR     42  34  73 S5        29.80F
RIVERTON       CLEAR     46  36  68 W16       29.79S
CASPER         MOCLDY    46  36  68 SW12      29.77R
DOUGLAS        CLOUDY    54  39  57 W20G32    29.70R

$$
WYZ021-027>030-104>119-301400-
SOUTHERN WYOMING

CITY           SKY/WX    TMP DP  RH WIND       PRES   REMARKS
EVANSTON       CLOUDY    42  40  92 SW16      29.99S
KEMMERER       PTSUNNY   41  39  93 W15       29.97R
FORT BRIDGER     N/A     44  41  88 W16G25    30.00S
ROCK SPRINGS   MOCLDY    41  36  82 W18       29.95S
DIXON          PTSUNNY   44  39  84 SW6       30.00S
RAWLINS        CLEAR     40  35  83 W20G26    29.91S WCI  30
SARATOGA         N/A     41  34  75 SW9       29.95R
LARAMIE        MOCLDY    43  31  62 W21       29.87S
CHEYENNE       CLOUDY    49  35  58 W22G31    29.84R
TORRINGTON     CLOUDY    52  45  77 W14G21    29.67R
PINE BLUFFS    PTSUNNY   46  41  81 SW14      29.80S

$$



USA.gov is the U.S. government's official web portal to all federal, state and local government web resources and services.